AirNav   TITAN Aviation Fuels
 
 361 users online  

13LA Evergreen Heliport
Cameron, Louisiana, USA

GOING TO CAMERON?


FAA INFORMATION EFFECTIVE 08 SEPTEMBER 2022

Location

FAA Identifier: 13LA
Lat/Long: 29-47-00.7950N 093-12-30.5450W
29-47.013250N 093-12.509083W
29.7835542,-93.2084847
(estimated)
Elevation: 10 ft. / 3 m (estimated)
Variation: 05E (1985)
From city: 5 miles E of CAMERON, LA
Time zone: UTC -5 (UTC -6 during Standard Time)
Zip code: 70632

Heliport Operations

Heliport use: Private use. Permission required prior to landing
Activation date: 10/1979
Control tower: no
ARTCC: HOUSTON CENTER
FSS: DE RIDDER FLIGHT SERVICE STATION
NOTAMs facility: FDC (NOTAM-D service not available)
Attendance: CONTINUOUS
Wind indicator: yes
Segmented circle: no
Landing fee: yes

Nearby radio navigation aids

VOR radial/distance  VOR name  Freq  Var
LCHr187/22.1LAKE CHARLES VORTAC113.4007E

 
NDB name  Hdg/Dist  Freq  Var  ID
SULPHUR152/27.227804EAUR .- ..- .-.

Heliport Services

Runway Information

Helipad H1

Dimensions: 50 x 20 ft. / 15 x 6 m
Surface: concrete
Latitude: 29-47.013250N
Longitude: 093-12.509083W
Elevation: 10.0 ft.
Traffic pattern: leftleft

Helipad H2

Dimensions: 50 x 20 ft. / 15 x 6 m
Surface: concrete
Elevation: 8.9 ft.
Traffic pattern: leftleft

Helipad H3

Dimensions: 50 x 20 ft. / 15 x 6 m
Surface: concrete
Elevation: 8.9 ft.
Traffic pattern: leftleft

Helipad H4

Dimensions: 50 x 20 ft. / 15 x 6 m
Surface: concrete
Traffic pattern: leftleft

Heliport Ownership and Management from official FAA records

Ownership: Privately-owned
Owner: EVERGREEN HELICOPTERS INC
ROUTE 3, BOX 19B
GALVESTON, TX 77554
Phone 409-740-0231
Manager: DAN BLANCHARD
2001 TERMINAL DR
GALVESTON, TX 77554
Phone 713-740-0231

Heliport Operational Statistics

Aircraft based on the field: 2
Helicopters: 2
    

Additional Remarks

FOR CD CTC LAKE CHARLES APCH AT 337-480-3103, WHEN APCH CLSD CTC HOUSTON ARTCC AT 281-230-5622.

Instrument Procedures

There are no published instrument procedures at 13LA.

Some nearby airports with instrument procedures:

KLCH - Lake Charles Regional Airport (21 nm N)
KUXL - Southland Field Airport (23 nm NW)
KCWF - Chennault International Airport (26 nm N)
6R1 - Welsh Airport (34 nm NE)
KORG - Orange County Airport (35 nm NW)
 
Loc | Ops | Rwys | IFR | FBO | Links
Com | Nav | Svcs | Stats | Notes
Area around 13LA (Evergreen Heliport)
 
Road maps at: MapQuest Bing Google
 
Aerial photo
No photo
 
Sectional chart

 
Airport distance calculator
Flying to Evergreen Heliport? Find the distance to fly.

From to 13LA

Sunrise and sunset
Times for 02-Oct-2022
 Local
(UTC-5)
 Zulu
(UTC)
Morning civil twilight06:4411:44
Sunrise07:0812:08
Sunset18:5723:57
Evening civil twilight19:2100:21

Current date and time
Zulu (UTC)  02-Oct-2022 10:02:30
Local (UTC-5)  02-Oct-2022 05:02:30
 
METAR
KLCH 
21nm N 
020953Z AUTO 03003KT 10SM CLR 14/08 A3006 RMK AO2 SLP187 T01390083
KUXL 
23nm NW 
020955Z AUTO 00000KT 10SM CLR 11/08 A3007 RMK AO2 T01140077
KCWF 
26nm N 
020955Z AUTO 03004KT 10SM CLR 14/09 A3007 RMK AO2 T01440086
KORG 
35nm NW 
020935Z AUTO 00000KT 10SM CLR 12/10 A3009 RMK AO2 T01220104
K3R7 
39nm NE 
020955Z AUTO 00000KT 10SM CLR 12/10 A3007 RMK AO2 T01190097
K5R8 
42nm N 
020930Z AUTO 00000KT 10SM CLR 10/08 A3008 RMK AO2 T00950079
TAF
KLCH 
21nm N 
020520Z 0206/0306 VRB04KT P6SM SKC FM021500 04007KT P6SM SKC FM030100 VRB03KT P6SM SKC
NOTAMs
Click for the latest NOTAMs
NOTAMs are issued by the DoD/FAA and will open in a separate window not controlled by AirNav.

 

 
 

Would you like to see your business listed on this page?

 If your business provides an interesting product or service to pilots, flight crews, aircraft, or users of the Evergreen Heliport, you should consider listing it here.  To start the listing process, click on the button below
 
Add a business
 

Other Pages about Evergreen Heliport

Update a link
 
Copyright © AirNav, LLC. All rights reserved. Privacy Policy  Contact